Regional Weather Roundup
Issued by NWS Midland/Odessa, TX

Skip options and go directly to product.
Home | Oldest Version | Previous Version | Current Version | All | Text Only | Save Text | Print | Product List | Glossary On

Skip product version selection by date and time.   
591
ASUS44 KMAF 181710
RWRMAF
MIDLAND AREA WEATHER ROUNDUP
NATIONAL WEATHER SERVICE MIDLAND TX
1200 PM CDT THU SEP 18 2014

...IN SOUTHWEST TEXAS AND SOUTHEAST NEW MEXICO...

CITY           SKY/WX    TMP DP  RH WIND       PRES   REMARKS
ALPINE         MOSUNNY   74  65  74 E9        30.10F
ANDREWS        CLOUDY    72  67  83 E7        30.02R
ARTESIA        NOT AVBL
BIG SPRING     CLOUDY    74  71  89 N6        30.02R
CARLSBAD       CLOUDY    72  69  90 CALM      29.98R
DRYDEN           N/A     88  68  51 E10       29.91F
FORT STOCKTON  LGT RAIN  74  69  85 W7        29.97F
GUAD PASS      CLOUDY    68  60  75 NE8       30.11R
HOBBS          LGT RAIN  68  66  94 W8        30.02R
MARFA          MOSUNNY   75  64  69 SE5       30.08S
MIDLAND AIRPK  CLOUDY    76  70  82 NE6       30.00R
MIDLAND INTL   CLOUDY    75  69  81 E6        29.98S
ODESSA         PTSUNNY   75  69  81 E10       29.99S
PECOS          PTSUNNY   77  67  70 SE5       29.95S
PRESIDIO       PTSUNNY   83  66  56 SE3       29.93F
SEMINOLE       CLOUDY    71  64  79 E7        30.04R
SNYDER         TSTM      70  69  98 NW8       30.01R
WINK           CLOUDY    78  69  73 SE8       29.94F
$$
...OTHER STATIONS IN TEXAS...

CITY           SKY/WX    TMP DP  RH WIND       PRES   REMARKS
ABILENE        CLOUDY    79  71  76 W7        29.96S
AMARILLO       CLOUDY    68  63  84 SE15      30.05S
AUSTIN         PTSUNNY   82  72  71 NE6       29.91S
BROWNSVILLE    MOSUNNY   89  77  67 SE17      29.87F HX 101
CORPUS CHRISTI PTSUNNY   89  75  63 S18       29.85F
DALLAS FTW     PTSUNNY   84  71  65 VRB7      29.92S
DEL RIO        CLOUDY    81  72  74 SE12      29.88S
EL PASO        LGT RAIN  68  64  87 N12       30.01R
HOUSTON INT    HVY RAIN  73  72  96 E9        29.92S VSB<1/4
LUBBOCK        CLOUDY    66  63  90 E16G25    30.04R
SAN ANGELO     MOSUNNY   85  69  58 S6        29.93F
SAN ANTONIO    PTSUNNY   88  71  57 S13       29.91R
WACO           PTSUNNY   84  74  71 CALM      29.91S
WICHITA FALLS  NOT AVBL
$$
...OTHER LOCATIONS IN NEW MEXICO...

CITY           SKY/WX    TMP DP  RH WIND       PRES   REMARKS
ALAMAGORDO     CLOUDY    66  63  88 CALM      30.04S
ALBUQUERQUE    MOSUNNY   70  52  52 VRB6      30.10S
CANNON AFB     NOT AVBL
CLOVIS           N/A     63  63 100 SE13      30.09S
HOLLOMAN AFB   NOT AVBL
ROSWELL        CLOUDY    71  64  78 S5        30.01R
RUIDOSO        PTSUNNY   64  54  68 E3        30.19R
SANTA FE       SUNNY     71  41  33 N14       30.13F
TRUTH OR CONSE CLOUDY    69  59  70 SE3       30.05R
TUCUMCARI      PTSUNNY   75  61  61 MISG      30.03S
$$

USA.gov is the U.S. government's official web portal to all federal, state and local government web resources and services.